Tracking 35274 objects as of 11-Sep-2026
HD Live streaming from Space Station
objects crossing your sky now

YUZGU 11


YUZGU 11 is no longer on orbit
YUZGU 11 is classified as:


NORAD ID: 53322
Int'l Code: 1998-067UA
Launch date: November 20, 1998
Source: Commonwealth of Independent States (former USSR) (CIS)
Launch site: TYURATAM MISSILE AND SPACE COMPLEX (TTMTR)
Decay date: 2023-01-31
Your satellite tracking list
Your tracking list is empty




NASA's NSSDC Master Catalog

Two Line Element Set (TLE):
1 53322U 98067UA  23025.95491387  .05424998  12036-4  12594-2 0  9993
2 53322  51.6182 292.0030 0007206 216.2319 143.8216 16.29006279 29496
Source of the keplerian elements: AFSPC